{"data":{"norad_id":60745,"epoch":"2026-05-25T04:21:08.114688Z","epoch_age_seconds":58613,"freshness":"FRESH","line1":"1 60745U 24153A   26145.18134392  .00050643  00000+0  10868-2 0  9998","line2":"2 60745  97.6700 285.6411 0008186 215.2551 144.8156 15.44522711 96550","mean_motion":15.44522711,"eccentricity":0.0008186,"inclination_deg":97.67,"raan_deg":285.6411,"arg_perigee_deg":215.2551,"mean_anomaly_deg":144.8156,"bstar":0.0010868,"rev_number":9655,"period_min":93.232685394938,"perigee_km":427.20543518476,"apogee_km":438.35626989294,"semimajor_km":6810.9178525388,"source":"CELESTRAK","updated_at":"2026-05-25T13:38:02.199833Z"}}